| time (UTC) | temp C | wind direction | speed KPH | gust KPH | rain 1hr cm | rain 24hr cm | rain mn cm | humidity % | barometer mb |
| 20260503174511 | 15 | 355 | 9.7 | 16.1 | 0.00 | 0.00 | 0.00 | 40 | 1018.3 |
| 20260503173014 | 15 | 65 | 3.2 | 14.5 | 0.00 | 0.00 | 0.00 | 39 | 1018.3 |
| 20260503171509 | 15 | 146 | 1.6 | 17.7 | 0.00 | 0.00 | 0.00 | 39 | 1018.6 |
| 20260503081501 | 0 | 145 | 0.0 | 0.0 | 0.00 | 0.00 | 0.00 | 91 | 1018.2 |
| 20260503071557 | 0 | 151 | 0.0 | 0.0 | 0.00 | 0.00 | 0.00 | 89 | 1017.7 |
| 20260503070104 | 1 | 151 | 0.0 | 0.0 | 0.00 | 0.00 | 0.00 | 89 | 1017.7 |
| 20260503054540 | 2 | 153 | 0.0 | 1.6 | 0.00 | 0.00 | 0.00 | 86 | 1017.7 |
| 20260503053038 | 2 | 153 | 0.0 | 0.0 | 0.00 | 0.00 | 0.00 | 85 | 1017.7 |
| 20260503051533 | 3 | 153 | 0.0 | 0.0 | 0.00 | 0.00 | 0.00 | 84 | 1017.7 |
| 20260503050031 | 3 | 153 | 0.0 | 3.2 | 0.00 | 0.00 | 0.00 | 83 | 1017.7 |
| 20260503044527 | 4 | 153 | 0.0 | 0.0 | 0.00 | 0.00 | 0.00 | 83 | 1017.6 |
| 20260503043023 | 4 | 153 | 0.0 | 0.0 | 0.00 | 0.00 | 0.00 | 83 | 1017.5 |
| 20260503041522 | 4 | 153 | 0.0 | 1.6 | 0.00 | 0.00 | 0.00 | 83 | 1017.4 |
| 20260503040020 | 4 | 153 | 0.0 | 0.0 | 0.00 | 0.00 | 0.00 | 82 | 1017.4 |
| 20260503034534 | 4 | 153 | 0.0 | 0.0 | 0.00 | 0.00 | 0.00 | 81 | 1017.4 |
| 20260503033016 | 5 | 153 | 0.0 | 0.0 | 0.00 | 0.00 | 0.00 | 80 | 1017.2 |
| 20260503031518 | 5 | 153 | 0.0 | 0.0 | 0.00 | 0.00 | 0.00 | 80 | 1017.2 |
| 20260503030015 | 5 | 153 | 0.0 | 4.8 | 0.00 | 0.00 | 0.00 | 78 | 1017.2 |
| 20260503024514 | 5 | 153 | 0.0 | 4.8 | 0.00 | 0.00 | 0.00 | 75 | 1017.2 |
| 20260503023010 | 6 | 153 | 0.0 | 6.4 | 0.00 | 0.00 | 0.00 | 73 | 1017.1 |
| 20260503021509 | 7 | 152 | 0.0 | 0.0 | 0.00 | 0.00 | 0.00 | 68 | 1016.8 |
| 20260503020007 | 7 | 150 | 0.0 | 0.0 | 0.00 | 0.00 | 0.00 | 64 | 1016.6 |
| 20260503014512 | 8 | 150 | 3.2 | 8.0 | 0.00 | 0.00 | 0.00 | 57 | 1016.4 |
| 20260503013004 | 8 | 149 | 0.0 | 3.2 | 0.00 | 0.00 | 0.00 | 56 | 1016.1 |
| 20260503011504 | 9 | 149 | 3.2 | 9.7 | 0.00 | 0.00 | 0.00 | 53 | 1015.9 |
| 20260503010003 | 9 | 152 | 1.6 | 8.0 | 0.00 | 0.00 | 0.00 | 56 | 1015.8 |
| 20260503004503 | 10 | 155 | 3.2 | 9.7 | 0.00 | 0.00 | 0.00 | 54 | 1015.7 |
| 20260503003100 | 10 | 153 | 0.0 | 3.2 | 0.00 | 0.00 | 0.00 | 52 | 1015.3 |
| 20260503001601 | 10 | 153 | 1.6 | 9.7 | 0.00 | 0.00 | 0.00 | 51 | 1015.2 |
| 20260503000059 | 11 | 161 | 4.8 | 11.3 | 0.00 | 0.00 | 0.00 | 48 | 1015.0 |
| 20260502234559 | 11 | 153 | 6.4 | 14.5 | 0.00 | 0.00 | 0.00 | 48 | 1014.9 |
| 20260502233102 | 11 | 168 | 3.2 | 12.9 | 0.00 | 0.00 | 0.00 | 47 | 1014.7 |
| 20260502231605 | 12 | 156 | 8.0 | 14.5 | 0.00 | 0.00 | 0.00 | 46 | 1014.6 |
| 20260502230055 | 12 | 171 | 8.0 | 14.5 | 0.00 | 0.00 | 0.00 | 45 | 1014.4 |
| 20260502224555 | 12 | 136 | 4.8 | 12.9 | 0.00 | 0.00 | 0.00 | 45 | 1014.3 |
| 20260502223053 | 12 | 100 | 6.4 | 12.9 | 0.00 | 0.00 | 0.00 | 46 | 1014.3 |
| 20260502221552 | 12 | 83 | 4.8 | 19.3 | 0.00 | 0.00 | 0.00 | 44 | 1014.3 |
| 20260502220100 | 13 | 53 | 11.3 | 20.9 | 0.00 | 0.00 | 0.00 | 42 | 1014.1 |
| 20260502214550 | 12 | 163 | 8.0 | 17.7 | 0.00 | 0.00 | 0.00 | 43 | 1014.1 |
| 20260502213048 | 12 | 132 | 6.4 | 20.9 | 0.00 | 0.00 | 0.00 | 44 | 1014.1 |
| 20260502211549 | 12 | 175 | 8.0 | 20.9 | 0.00 | 0.00 | 0.00 | 44 | 1014.0 |
| 20260502210057 | 12 | 116 | 6.4 | 19.3 | 0.00 | 0.00 | 0.00 | 44 | 1014.1 |
| 20260502204547 | 13 | 148 | 6.4 | 17.7 | 0.00 | 0.00 | 0.00 | 45 | 1014.0 |
| 20260502203043 | 12 | 216 | 4.8 | 16.1 | 0.00 | 0.00 | 0.00 | 47 | 1014.2 |
| 20260502201541 | 12 | 104 | 9.7 | 16.1 | 0.00 | 0.00 | 0.00 | 46 | 1014.3 |
| 20260502200042 | 12 | 169 | 1.6 | 12.9 | 0.00 | 0.00 | 0.00 | 47 | 1014.4 |
| 20260502194539 | 12 | 106 | 3.2 | 11.3 | 0.00 | 0.00 | 0.00 | 48 | 1014.5 |
| 20260502193036 | 12 | 107 | 4.8 | 16.1 | 0.00 | 0.00 | 0.00 | 45 | 1014.7 |
| 20260502191535 | 12 | 103 | 1.6 | 14.5 | 0.00 | 0.00 | 0.00 | 43 | 1014.7 |
| 20260502190034 | 13 | 82 | 14.5 | 22.5 | 0.00 | 0.00 | 0.00 | 43 | 1014.9 |
| 20260502184543 | 12 | 86 | 1.6 | 16.1 | 0.00 | 0.00 | 0.00 | 47 | 1015.0 |
| 20260502183031 | 13 | 131 | 9.7 | 29.0 | 0.00 | 0.00 | 0.00 | 44 | 1015.1 |
| 20260502181528 | 12 | 67 | 3.2 | 14.5 | 0.00 | 0.00 | 0.00 | 44 | 1015.1 |